User: anonymous   Login
Location: Catstown
(52.4386°N, 7.2633°W)
Time: 00:17:51
(UTC+00:00)
Language:

Okean 2 Rocket - Orbit

View from above orbital plane
View from above orbital plane
View from above satellite
View from above satellite

Ground track
Ground track

The orbit data is extracted from the following two-line orbital elements,

1 20511U 90018B   20336.19050079  .00000130  00000-0  14079-4 0  9991
2 20511  82.5247 217.8530 0016085 293.3258 182.9076 14.80056941658872
Epoch (UTC): 01 December 2020 04:34:19
Eccentricity: 0.0016085
inclination: 82.5247°
perigee height: 618 km
apogee height: 640 km
right ascension of ascending node: 217.8530°
argument of perigee: 293.3258°
revolutions per day: 14.80056941
mean anomaly at epoch: 182.9076°
orbit number at epoch: 65887

The dashed part of the orbit path shows where the satellite is in the earth's shadow,  

DLR